WA6MHA-11 Weather Reports


Display with metric or nautical units.
time (UTC)temp
F
wind
direction
speed
MPH
gust
MPH
rain 1hr
in
rain 24hr
in
rain mn
in
humidity
%
barometer
mb
20171212041851 48 222 1.0 4.0 0.00 0.00 0.00 19 1024.6
20171212041450 48 211 2.0 2.0 0.00 0.00 0.00 19 1024.5
20171212041131 48 236 1.0 2.0 0.00 0.00 0.00 19 1024.4
20171212041049 48 236 1.0 2.0 0.00 0.00 0.00 19 1024.4
20171212040648 48 234 1.0 2.0 0.00 0.00 0.00 19 1024.5
20171212040246 48 285 1.0 3.0 0.00 0.00 0.00 19 1024.4
20171212035845 48 270 1.0 2.0 0.00 0.00 0.00 19 1024.3
20171212035443 48 225 1.0 2.0 0.00 0.00 0.00 19 1024.3
20171212035042 48 238 1.0 3.0 0.00 0.00 0.00 19 1024.4
20171212034641 49 225 0.0 2.0 0.00 0.00 0.00 19 1024.4
20171212034240 49 297 1.0 2.0 0.00 0.00 0.00 19 1024.4
20171212033929 49 270 2.0 2.0 0.00 0.00 0.00 18 1024.4
20171212033838 49 270 2.0 2.0 0.00 0.00 0.00 18 1024.4
20171212033539 49 315 0.0 1.0 0.00 0.00 0.00 18 1024.4
20171212033437 49 315 0.0 1.0 0.00 0.00 0.00 18 1024.4
20171212033112 49 45 0.0 2.0 0.00 0.00 0.00 18 1024.4
20171212033035 49 45 0.0 2.0 0.00 0.00 0.00 18 1024.4
20171212032634 49 218 1.0 2.0 0.00 0.00 0.00 18 1024.4
20171212032233 49 285 1.0 1.0 0.00 0.00 0.00 18 1024.3
20171212031832 50 301 0.0 1.0 0.00 0.00 0.00 18 1024.3
20171212031540 50 353 0.0 1.0 0.00 0.00 0.00 18 1024.2
20171212031431 50 353 0.0 1.0 0.00 0.00 0.00 18 1024.2
20171212031034 50 315 1.0 2.0 0.00 0.00 0.00 18 1024.2
20171212030709 51 234 1.0 2.0 0.00 0.00 0.00 18 1024.2
20171212030627 51 234 1.0 2.0 0.00 0.00 0.00 18 1024.2
20171212030226 51 335 2.0 2.0 0.00 0.00 0.00 17 1024.2
20171212025825 51 240 1.0 2.0 0.00 0.00 0.00 17 1024.2
20171212025424 51 225 0.0 1.0 0.00 0.00 0.00 17 1024.3
20171212025023 52 301 0.0 1.0 0.00 0.00 0.00 17 1024.2
20171212024733 52 225 2.0 3.0 0.00 0.00 0.00 17 1024.2
20171212024621 52 225 2.0 3.0 0.00 0.00 0.00 17 1024.2
20171212024354 52 270 1.0 1.0 0.00 0.00 0.00 17 1024.1
20171212024219 52 270 1.0 1.0 0.00 0.00 0.00 17 1024.1
20171212023902 53 247 0.0 2.0 0.00 0.00 0.00 17 1024.1
20171212023818 53 247 0.0 2.0 0.00 0.00 0.00 17 1024.1
20171212023527 53 270 1.0 1.0 0.00 0.00 0.00 17 1024.1
20171212023417 53 270 1.0 1.0 0.00 0.00 0.00 17 1024.1
20171212023016 53 303 1.0 2.0 0.00 0.00 0.00 16 1024.1
20171212022246 54 234 1.0 2.0 0.00 0.00 0.00 16 1024.0
20171212022207 54 234 1.0 2.0 0.00 0.00 0.00 16 1024.0
20171212021806 54 225 0.0 0.0 0.00 0.00 0.00 16 1024.0
20171212021404 55 220 1.0 1.0 0.00 0.00 0.00 16 1024.0
20171212021003 55 225 1.0 1.0 0.00 0.00 0.00 16 1024.0
20171212020602 55 209 1.0 2.0 0.00 0.00 0.00 16 1023.9
20171212020316 56 245 1.0 3.0 0.00 0.00 0.00 15 1023.9
20171212020201 56 245 1.0 3.0 0.00 0.00 0.00 15 1023.9
20171212015843 56 270 1.0 3.0 0.00 0.00 0.00 15 1023.9
20171212015759 56 270 1.0 3.0 0.00 0.00 0.00 15 1023.9
20171212015358 56 267 1.0 3.0 0.00 0.00 0.00 15 1023.9
20171212014956 57 225 3.0 3.0 0.00 0.00 0.00 15 1023.8
20171212014728 57 225 3.0 3.0 0.00 0.00 0.00 15 1023.8
20171212014555 57 225 3.0 3.0 0.00 0.00 0.00 15 1023.8
20171212014154 57 233 0.0 3.0 0.00 0.00 0.00 15 1023.8
20171212013753 58 272 0.0 3.0 0.00 0.00 0.00 15 1023.8
20171212012950 58 276 1.0 2.0 0.00 0.00 0.00 14 1023.6
20171212012548 58 216 1.0 2.0 0.00 0.00 0.00 14 1023.6
20171212012147 59 225 2.0 2.0 0.00 0.00 0.00 14 1023.6
20171212011746 59 220 2.0 2.0 0.00 0.00 0.00 14 1023.6
20171212011423 60 180 1.0 1.0 0.00 0.00 0.00 14 1023.6
20171212011345 60 180 1.0 1.0 0.00 0.00 0.00 14 1023.6
20171212010945 61 238 1.0 2.0 0.00 0.00 0.00 13 1023.5
20171212010542 61 234 2.0 3.0 0.00 0.00 0.00 13 1023.5
20171212010307 62 297 1.0 2.0 0.00 0.00 0.00 13 1023.5
20171212010141 62 297 1.0 2.0 0.00 0.00 0.00 13 1023.5
20171212005739 62 225 1.0 3.0 0.00 0.00 0.00 13 1023.5
20171212005338 63 261 2.0 3.0 0.00 0.00 0.00 13 1023.6
20171212004937 63 225 2.0 3.0 0.00 0.00 0.00 13 1023.6
20171212004134 65 294 1.0 2.0 0.00 0.00 0.00 12 1023.5
20171212003733 65 238 1.0 2.0 0.00 0.00 0.00 12 1023.5
20171212003331 66 225 2.0 2.0 0.00 0.00 0.00 12 1023.5
20171212002930 66 235 2.0 2.0 0.00 0.00 0.00 12 1023.5
20171212002529 67 270 1.0 2.0 0.00 0.00 0.00 12 1023.4
20171212002128 67 270 1.0 2.0 0.00 0.00 0.00 12 1023.5
20171212001726 67 250 1.0 2.0 0.00 0.00 0.00 11 1023.4
20171212001325 67 270 2.0 3.0 0.00 0.00 0.00 11 1023.4
20171212000924 68 254 2.0 3.0 0.00 0.00 0.00 11 1023.5
20171212000522 69 240 1.0 2.0 0.00 0.00 0.00 11 1023.5
20171212000121 69 231 2.0 2.0 0.00 0.00 0.00 10 1023.5
20171211235720 70 256 2.0 2.0 0.00 0.00 0.00 10 1023.4
20171211235318 71 252 1.0 2.0 0.00 0.00 0.00 10 1023.3
20171211234917 71 317 1.0 2.0 0.00 0.00 0.00 10 1023.4
20171211234516 72 261 2.0 4.0 0.00 0.00 0.00 10 1023.4
20171211234114 73 53 0.0 2.0 0.00 0.00 0.00 10 1023.3
20171211233713 73 279 1.0 4.0 0.00 0.00 0.00 10 1023.4
20171211232910 74 270 1.0 2.0 0.00 0.00 0.00 9 1023.4
20171211232509 74 267 2.0 2.0 0.00 0.00 0.00 9 1023.4
20171211232108 75 258 1.0 3.0 0.00 0.00 0.00 9 1023.3
20171211231707 75 270 2.0 2.0 0.00 0.00 0.00 9 1023.3
20171211231305 76 285 1.0 3.0 0.00 0.00 0.00 9 1023.3
20171211230906 76 252 2.0 4.0 0.00 0.00 0.00 10 1023.3
20171211230502 76 276 2.0 4.0 0.00 0.00 0.00 10 1023.3
20171211230101 76 274 3.0 3.0 0.00 0.00 0.00 10 1023.3
20171211225700 76 0 1.0 4.0 0.00 0.00 0.00 10 1023.4
20171211225259 76 272 4.0 4.0 0.00 0.00 0.00 10 1023.4
20171211224858 76 288 2.0 4.0 0.00 0.00 0.00 10 1023.3
20171211224456 76 301 3.0 4.0 0.00 0.00 0.00 10 1023.3
20171211224054 76 310 3.0 5.0 0.00 0.00 0.00 10 1023.3
20171211223653 77 283 3.0 4.0 0.00 0.00 0.00 10 1023.3
20171211223252 77 292 2.0 4.0 0.00 0.00 0.00 10 1023.3
20171211222851 77 270 4.0 4.0 0.00 0.00 0.00 10 1023.3
20171211222450 77 263 2.0 5.0 0.00 0.00 0.00 10 1023.3
20171211222048 77 288 3.0 4.0 0.00 0.00 0.00 9 1023.3
20171211221646 77 333 2.0 5.0 0.00 0.00 0.00 9 1023.3
20171211221245 77 335 1.0 4.0 0.00 0.00 0.00 9 1023.3
20171211220844 77 274 4.0 4.0 0.00 0.00 0.00 8 1023.3
20171211220443 77 294 3.0 6.0 0.00 0.00 0.00 8 1023.4
20171211220042 77 265 3.0 7.0 0.00 0.00 0.00 7 1023.4
20171211215640 77 317 5.0 6.0 0.00 0.00 0.00 7 1023.4
20171211215238 76 310 3.0 5.0 0.00 0.00 0.00 8 1023.4
20171211214837 76 315 4.0 5.0 0.00 0.00 0.00 10 1023.4
20171211214436 76 315 2.0 4.0 0.00 0.00 0.00 11 1023.4
20171211214035 76 301 3.0 4.0 0.00 0.00 0.00 12 1023.5
20171211213634 76 326 3.0 5.0 0.00 0.00 0.00 12 1023.4
20171211213232 76 344 1.0 4.0 0.00 0.00 0.00 12 1023.5
20171211212831 76 306 4.0 4.0 0.00 0.00 0.00 12 1023.5
20171211212429 77 315 2.0 4.0 0.00 0.00 0.00 12 1023.5
20171211212028 77 319 3.0 4.0 0.00 0.00 0.00 12 1023.6
20171211211627 77 317 3.0 6.0 0.00 0.00 0.00 11 1023.6
20171211211226 77 0 6.0 6.0 0.00 0.00 0.00 11 1023.6
20171211210826 77 351 3.0 5.0 0.00 0.00 0.00 11 1023.7
20171211210423 77 333 5.0 7.0 0.00 0.00 0.00 11 1023.7
20171211210022 77 325 4.0 7.0 0.00 0.00 0.00 11 1023.7
20171211205620 77 317 3.0 7.0 0.00 0.00 0.00 11 1023.8
20171211205219 77 319 4.0 6.0 0.00 0.00 0.00 12 1023.7
20171211204818 78 319 3.0 7.0 0.00 0.00 0.00 13 1023.8
20171211204008 77 355 3.0 6.0 0.00 0.00 0.00 13 1023.9
20171211203607 77 337 3.0 6.0 0.00 0.00 0.00 13 1023.9
20171211203206 78 317 1.0 2.0 0.00 0.00 0.00 13 1023.9
20171211202804 77 319 2.0 4.0 0.00 0.00 0.00 13 1024.0
20171211202403 78 353 3.0 5.0 0.00 0.00 0.00 13 1024.0
20171211202002 78 335 3.0 6.0 0.00 0.00 0.00 13 1024.0
20171211201600 78 339 3.0 3.0 0.00 0.00 0.00 13 1024.2
20171211201159 79 317 2.0 4.0 0.00 0.00 0.00 13 1024.1
20171211200758 79 279 3.0 3.0 0.00 0.00 0.00 14 1024.2
20171211200356 79 247 4.0 7.0 0.00 0.00 0.00 14 1024.2
20171211195955 79 315 4.0 6.0 0.00 0.00 0.00 14 1024.3
20171211195554 79 11 1.0 6.0 0.00 0.00 0.00 14 1024.3
20171211195152 78 13 6.0 8.0 0.00 0.00 0.00 14 1024.4
20171211194751 78 353 5.0 7.0 0.00 0.00 0.00 14 1024.6
20171211194350 78 310 3.0 4.0 0.00 0.00 0.00 15 1024.5
20171211193948 78 351 4.0 10.0 0.00 0.00 0.00 15 1024.6
20171211193547 79 299 2.0 6.0 0.00 0.00 0.00 15 1024.8
20171211193146 78 210 2.0 5.0 0.00 0.00 0.00 15 1024.8
20171211192337 77 301 3.0 5.0 0.00 0.00 0.00 16 1024.9
20171211191936 77 315 4.0 4.0 0.00 0.00 0.00 16 1025.0
20171211191535 76 342 6.0 7.0 0.00 0.00 0.00 16 1025.1
20171211191133 76 328 4.0 5.0 0.00 0.00 0.00 17 1025.1
20171211190732 76 330 3.0 4.0 0.00 0.00 0.00 17 1025.2
20171211190330 76 342 2.0 7.0 0.00 0.00 0.00 17 1025.2
20171211185929 76 274 2.0 5.0 0.00 0.00 0.00 17 1025.2
20171211185528 76 303 1.0 6.0 0.00 0.00 0.00 18 1025.4
20171211185127 76 217 0.0 7.0 0.00 0.00 0.00 18 1025.3
20171211184726 75 303 2.0 6.0 0.00 0.00 0.00 18 1025.4
20171211184324 75 312 1.0 6.0 0.00 0.00 0.00 19 1025.4
20171211183922 75 272 4.0 7.0 0.00 0.00 0.00 19 1025.5
20171211183521 74 326 4.0 5.0 0.00 0.00 0.00 19 1025.4
20171211183120 73 301 2.0 3.0 0.00 0.00 0.00 20 1025.5
20171211182719 73 265 4.0 5.0 0.00 0.00 0.00 20 1025.5
20171211182318 72 247 3.0 4.0 0.00 0.00 0.00 20 1025.5
20171211181916 71 315 1.0 3.0 0.00 0.00 0.00 20 1025.5
20171211181514 71 309 1.0 4.0 0.00 0.00 0.00 21 1025.6
20171211181113 70 265 3.0 3.0 0.00 0.00 0.00 21 1025.6
20171211180712 70 270 4.0 4.0 0.00 0.00 0.00 21 1025.6
20171211180311 69 270 3.0 5.0 0.00 0.00 0.00 22 1025.6
20171211175910 68 270 1.0 4.0 0.00 0.00 0.00 22 1025.6
20171211175508 68 270 3.0 5.0 0.00 0.00 0.00 22 1025.7
20171211175106 67 270 3.0 6.0 0.00 0.00 0.00 23 1025.6
20171211174705 67 254 3.0 5.0 0.00 0.00 0.00 23 1025.6
20171211174304 67 254 3.0 4.0 0.00 0.00 0.00 23 1025.6
20171211173903 66 270 3.0 4.0 0.00 0.00 0.00 24 1025.5
20171211173502 66 279 4.0 5.0 0.00 0.00 0.00 24 1025.5
20171211173100 65 261 3.0 3.0 0.00 0.00 0.00 24 1025.6
20171211172658 64 290 2.0 3.0 0.00 0.00 0.00 24 1025.5
20171211172257 63 222 2.0 4.0 0.00 0.00 0.00 25 1025.5
20171211171856 62 261 2.0 3.0 0.00 0.00 0.00 25 1025.5
20171211171456 61 209 1.0 2.0 0.00 0.00 0.00 25 1025.4
20171211171055 59 267 2.0 3.0 0.00 0.00 0.00 25 1025.4
20171211170653 58 270 1.0 2.0 0.00 0.00 0.00 25 1025.3
20171211170251 58 270 1.0 2.0 0.00 0.00 0.00 25 1025.3
20171211165849 57 303 2.0 3.0 0.00 0.00 0.00 25 1025.3
20171211165448 56 254 3.0 4.0 0.00 0.00 0.00 25 1025.2
20171211165047 54 344 1.0 2.0 0.00 0.00 0.00 25 1025.2
20171211164646 53 348 1.0 2.0 0.00 0.00 0.00 25 1025.3
20171211164245 52 270 1.0 1.0 0.00 0.00 0.00 25 1025.2
20171211163843 51 263 1.0 1.0 0.00 0.00 0.01 25 1025.2
20171211163441 49 0 0.0 1.0 0.00 0.00 0.01 25 1025.2
20171211163040 49 225 0.0 1.0 0.00 0.00 0.01 25 1025.0
20171211162639 48 225 1.0 1.0 0.00 0.00 0.01 25 1025.0
20171211162238 47 272 1.0 2.0 0.00 0.00 0.01 25 1025.0
20171211161837 46 315 0.0 1.0 0.00 0.00 0.01 25 1024.9
20171211161435 45 315 0.0 1.0 0.00 0.00 0.01 25 1025.0
20171211161034 45 270 0.0 1.0 0.00 0.00 0.01 25 1024.9
20171211160632 44 225 0.0 1.0 0.00 0.00 0.01 25 1024.9
20171211160231 43 0 0.0 1.0 0.00 0.00 0.01 25 1024.9
20171211155830 42 270 1.0 1.0 0.00 0.00 0.01 25 1024.9
20171211155429 42 270 0.0 1.0 0.00 0.00 0.01 25 1024.9
20171211155027 42 225 0.0 1.0 0.00 0.00 0.01 25 1024.8
20171211154626 41 0 0.0 0.0 0.00 0.00 0.01 25 1024.8
20171211154225 41 240 0.0 1.0 0.00 0.00 0.01 25 1024.6
20171211153823 41 42 0.0 2.0 0.00 0.00 0.01 25 1024.7
20171211153422 40 270 2.0 2.0 0.00 0.00 0.01 25 1024.6
20171211153022 40 308 1.0 1.0 0.00 0.00 0.01 25 1024.6
20171211152218 40 348 0.0 1.0 0.00 0.00 0.01 25 1024.4
20171211151817 40 315 0.0 1.0 0.00 0.00 0.01 25 1024.4
20171211151415 40 238 0.0 2.0 0.00 0.00 0.01 25 1024.4
20171211151014 40 285 2.0 3.0 0.00 0.00 0.01 25 1024.3
20171211150934 40 225 0.0 1.0 0.00 0.00 0.01 25 1024.2
20171211150926 40 297 1.0 2.0 0.00 0.00 0.01 25 1024.2
20171211150924 40 225 2.0 2.0 0.00 0.00 0.01 25 1024.1
20171211150613 40 225 0.0 1.0 0.00 0.00 0.01 25 1024.2
20171211150211 40 249 2.0 2.0 0.00 0.00 0.01 25 1024.2
20171211145810 40 297 1.0 2.0 0.00 0.00 0.01 25 1024.2
20171211145409 40 225 2.0 2.0 0.00 0.00 0.01 25 1024.1
20171211145008 40 315 1.0 1.0 0.00 0.00 0.01 25 1024.0
20171211144606 40 225 0.0 1.0 0.00 0.00 0.01 25 1024.0
20171211144205 40 310 0.0 1.0 0.00 0.00 0.01 25 1024.1
20171211143803 40 234 1.0 1.0 0.00 0.00 0.01 24 1024.0
20171211143402 40 270 0.0 1.0 0.00 0.00 0.01 24 1024.1
20171211143001 40 315 0.0 1.0 0.00 0.00 0.01 24 1024.0
20171211142600 40 328 0.0 1.0 0.00 0.00 0.01 24 1024.0
20171211142158 40 270 1.0 2.0 0.00 0.00 0.01 24 1023.9
20171211141758 40 225 1.0 2.0 0.00 0.00 0.01 24 1023.9
20171211141355 40 225 0.0 1.0 0.00 0.00 0.01 24 1023.9
20171211140954 40 270 0.0 1.0 0.00 0.00 0.01 24 1023.8
20171211140152 41 180 0.0 2.0 0.00 0.00 0.01 24 1023.8
20171211135751 41 180 1.0 1.0 0.00 0.00 0.01 24 1023.8
20171211135011 41 270 1.0 2.0 0.00 0.00 0.01 24 1023.7
20171211134947 41 270 0.0 1.0 0.00 0.00 0.01 24 1023.7
20171211134903 41 297 1.0 2.0 0.00 0.00 0.01 24 1023.8
20171211134754 41 270 1.0 2.0 0.00 0.00 0.01 24 1023.7
20171211134643 41 297 1.0 2.0 0.00 0.00 0.01 24 1023.8
20171211134546 41 270 1.0 2.0 0.00 0.00 0.01 24 1023.7
20171211134530 41 297 1.0 2.0 0.00 0.00 0.01 24 1023.8
20171211134416 41 297 1.0 2.0 0.00 0.00 0.01 24 1023.8
20171211134216 41 297 1.0 2.0 0.00 0.00 0.01 24 1023.8
20171211134145 41 297 1.0 2.0 0.00 0.00 0.01 24 1023.8
20171211133744 41 270 1.0 2.0 0.00 0.00 0.01 24 1023.7
20171211133457 41 270 1.0 2.0 0.00 0.00 0.01 24 1023.6
20171211133343 41 270 1.0 2.0 0.00 0.00 0.01 24 1023.6
20171211133103 41 247 1.0 2.0 0.00 0.00 0.01 24 1023.6
20171211132942 41 247 1.0 2.0 0.00 0.00 0.01 24 1023.6
20171211132725 41 270 1.0 2.0 0.00 0.00 0.01 24 1023.6
20171211132637 41 270 1.0 2.0 0.00 0.00 0.01 24 1023.6
20171211132539 41 270 1.0 2.0 0.00 0.00 0.01 24 1023.6
20171211132248 41 236 1.0 1.0 0.00 0.00 0.01 24 1023.5
20171211132138 41 236 1.0 1.0 0.00 0.00 0.01 24 1023.5
20171211131916 41 315 1.0 2.0 0.00 0.00 0.01 24 1023.5
20171211131737 41 315 1.0 2.0 0.00 0.00 0.01 24 1023.5
20171211131435 41 315 1.0 1.0 0.00 0.00 0.01 24 1023.4
20171211131336 41 315 1.0 1.0 0.00 0.00 0.01 24 1023.4
20171211131149 41 315 0.0 1.0 0.00 0.00 0.01 24 1023.3
20171211130935 41 315 0.0 1.0 0.00 0.00 0.01 24 1023.3
20171211130654 41 315 0.0 1.0 0.00 0.00 0.01 24 1023.3
20171211130533 41 315 0.0 1.0 0.00 0.00 0.01 24 1023.3
20171211130242 41 315 1.0 2.0 0.00 0.00 0.01 24 1023.3
20171211130131 41 315 1.0 2.0 0.00 0.00 0.01 24 1023.3
20171211125924 42 270 1.0 1.0 0.00 0.00 0.01 24 1023.3
20171211125730 42 270 1.0 1.0 0.00 0.00 0.01 24 1023.3
20171211125428 42 225 1.0 3.0 0.00 0.00 0.01 24 1023.3
20171211125329 42 225 1.0 3.0 0.00 0.00 0.01 24 1023.3
20171211125015 42 315 3.0 3.0 0.00 0.00 0.01 24 1023.3
20171211124928 42 315 3.0 3.0 0.00 0.00 0.01 24 1023.3
20171211124718 42 180 0.0 1.0 0.00 0.00 0.01 24 1023.3
20171211124609 42 180 0.0 1.0 0.00 0.00 0.01 24 1023.3
20171211124527 42 180 0.0 1.0 0.00 0.00 0.01 24 1023.3
20171211124247 42 270 0.0 2.0 0.00 0.00 0.01 24 1023.1
20171211124125 42 270 0.0 2.0 0.00 0.00 0.01 24 1023.1
20171211123915 42 270 1.0 1.0 0.00 0.00 0.01 24 1023.2
20171211123816 42 270 1.0 1.0 0.00 0.00 0.01 24 1023.2
20171211123723 42 270 1.0 1.0 0.00 0.00 0.01 24 1023.2
20171211123435 42 225 0.0 2.0 0.00 0.00 0.01 24 1023.2
20171211123322 42 225 0.0 2.0 0.00 0.00 0.01 24 1023.2
20171211123118 42 315 1.0 2.0 0.00 0.00 0.01 23 1023.1
20171211122921 42 315 1.0 2.0 0.00 0.00 0.01 23 1023.1
20171211122716 42 333 1.0 1.0 0.00 0.00 0.01 23 1023.2
20171211122636 42 333 1.0 1.0 0.00 0.00 0.01 23 1023.2
20171211122520 42 333 1.0 1.0 0.00 0.00 0.01 23 1023.2
20171211122255 42 180 0.0 2.0 0.00 0.00 0.01 23 1023.2
20171211122207 42 180 0.0 2.0 0.00 0.00 0.01 23 1023.2
20171211122119 42 180 0.0 2.0 0.00 0.00 0.01 23 1023.2
20171211121848 42 303 1.0 3.0 0.00 0.00 0.01 23 1023.1
20171211121813 42 303 1.0 3.0 0.00 0.00 0.01 23 1023.1
20171211121717 42 303 1.0 3.0 0.00 0.00 0.01 23 1023.1
20171211121416 42 22 1.0 2.0 0.00 0.00 0.01 23 1023.1
20171211121316 42 22 1.0 2.0 0.00 0.00 0.01 23 1023.1
20171211121032 42 180 1.0 2.0 0.00 0.00 0.01 23 1023.2
20171211120914 42 180 1.0 2.0 0.00 0.00 0.01 23 1023.2
20171211120755 42 272 0.0 2.0 0.00 0.00 0.01 23 1023.2
20171211120551 42 272 0.0 2.0 0.00 0.00 0.01 23 1023.2
20171211120513 42 272 0.0 2.0 0.00 0.00 0.01 23 1023.2
20171211120227 42 342 1.0 2.0 0.00 0.00 0.01 23 1023.1
20171211120112 42 342 1.0 2.0 0.00 0.00 0.01 23 1023.1
20171211115926 42 270 1.0 1.0 0.00 0.00 0.01 23 1023.2
20171211115711 42 270 1.0 1.0 0.00 0.00 0.01 23 1023.2
20171211115411 42 270 1.0 1.0 0.00 0.00 0.01 23 1023.3
20171211115310 42 270 1.0 1.0 0.00 0.00 0.01 23 1023.3
20171211115032 42 255 0.0 2.0 0.00 0.00 0.01 23 1023.2
20171211114908 42 255 0.0 2.0 0.00 0.00 0.01 23 1023.2
20171211114734 43 297 1.0 1.0 0.00 0.00 0.01 23 1023.2
20171211114506 43 297 1.0 1.0 0.00 0.00 0.01 23 1023.2
20171211114357 43 317 0.0 1.0 0.00 0.00 0.01 23 1023.3
20171211114105 43 317 0.0 1.0 0.00 0.00 0.01 23 1023.3
20171211113920 43 315 1.0 1.0 0.00 0.00 0.01 23 1023.3
20171211113704 43 315 1.0 1.0 0.00 0.00 0.01 23 1023.3
20171211113542 43 315 1.0 3.0 0.00 0.00 0.01 23 1023.5
20171211113303 43 270 1.0 2.0 0.00 0.00 0.01 23 1023.3
20171211113117 43 315 1.0 3.0 0.00 0.00 0.01 23 1023.5
20171211112902 43 315 1.0 3.0 0.00 0.00 0.01 23 1023.5
20171211112743 43 101 0.0 2.0 0.00 0.00 0.01 23 1023.4
20171211112500 43 101 0.0 2.0 0.00 0.00 0.01 23 1023.4
20171211112233 43 148 0.0 4.0 0.00 0.00 0.01 23 1023.4
20171211112059 43 148 0.0 4.0 0.00 0.00 0.01 23 1023.4
20171211111902 44 184 1.0 1.0 0.00 0.00 0.01 23 1023.5
20171211111657 44 184 1.0 1.0 0.00 0.00 0.01 23 1023.5
20171211110955 44 270 1.0 2.0 0.00 0.00 0.01 23 1023.5
20171211110849 44 270 1.0 2.0 0.00 0.00 0.01 23 1023.5
20171211110709 44 319 0.0 2.0 0.00 0.00 0.01 23 1023.6
20171211110618 44 319 0.0 2.0 0.00 0.00 0.01 23 1023.6
20171211110448 44 319 0.0 2.0 0.00 0.00 0.01 23 1023.6
20171211110223 44 225 1.0 3.0 0.00 0.00 0.01 23 1023.5
20171211110046 44 225 1.0 3.0 0.00 0.00 0.01 23 1023.5
20171211105842 44 266 0.0 3.0 0.00 0.00 0.01 22 1023.6
20171211105645 44 266 0.0 3.0 0.00 0.00 0.01 22 1023.6
20171211105433 43 225 1.0 6.0 0.00 0.00 0.01 22 1023.6
20171211105244 43 225 1.0 6.0 0.00 0.00 0.01 22 1023.6
20171211105022 43 225 1.0 1.0 0.00 0.00 0.01 22 1023.7
20171211104842 43 225 1.0 1.0 0.00 0.00 0.01 22 1023.7
20171211103806 44 231 2.0 3.0 0.00 0.00 0.01 22 1023.7
20171211103631 44 231 2.0 3.0 0.00 0.00 0.01 22 1023.7
20171211103408 44 4 3.0 3.0 0.00 0.00 0.01 22 1023.8
20171211103230 44 4 3.0 3.0 0.00 0.00 0.01 22 1023.8
20171211103018 44 0 3.0 3.0 0.00 0.00 0.01 22 1023.8
20171211102829 44 0 3.0 3.0 0.00 0.00 0.01 22 1023.8
20171211102528 45 0 0.0 2.0 0.00 0.00 0.01 21 1023.7
20171211102427 44 0 1.0 5.0 0.00 0.00 0.01 22 1023.7
20171211102234 44 321 1.0 3.0 0.00 0.00 0.01 22 1023.8
20171211102026 44 321 1.0 3.0 0.00 0.00 0.01 22 1023.8
20171211101815 45 0 0.0 2.0 0.00 0.00 0.01 21 1023.7
20171211101625 45 0 0.0 2.0 0.00 0.00 0.01 21 1023.7
20171211101437 45 207 1.0 1.0 0.00 0.00 0.01 21 1023.8
20171211101223 45 207 1.0 1.0 0.00 0.00 0.01 21 1023.8
20171211100947 45 225 0.0 0.0 0.00 0.00 0.01 21 1023.8
20171211100822 45 225 0.0 0.0 0.00 0.00 0.01 21 1023.8
20171211100607 45 225 0.0 1.0 0.00 0.00 0.01 21 1023.8
20171211100421 45 225 0.0 1.0 0.00 0.00 0.01 21 1023.8
20171211100144 45 180 0.0 1.0 0.00 0.00 0.01 21 1023.9
20171211100019 45 180 0.0 1.0 0.00 0.00 0.01 21 1023.9
20171211095849 45 225 1.0 2.0 0.00 0.00 0.01 21 1023.8
20171211095618 45 225 1.0 2.0 0.00 0.00 0.01 21 1023.8
20171211095302 45 8 0.0 2.0 0.00 0.00 0.01 21 1023.8
20171211095217 45 8 0.0 2.0 0.00 0.00 0.01 21 1023.8
20171211094950 45 270 0.0 2.0 0.00 0.00 0.01 21 1023.8
20171211094815 45 270 0.0 2.0 0.00 0.00 0.01 21 1023.8
20171211094535 45 270 0.0 5.0 0.00 0.00 0.01 21 1023.9
20171211094414 45 270 0.0 5.0 0.00 0.00 0.01 21 1023.9
20171211094013 45 315 1.0 1.0 0.00 0.00 0.01 21 1023.9
20171211093739 45 288 1.0 2.0 0.00 0.00 0.01 21 1023.9
20171211093612 45 288 1.0 2.0 0.00 0.00 0.01 21 1023.9
20171211093313 45 315 1.0 1.0 0.00 0.00 0.01 20 1023.9
20171211093210 45 315 1.0 1.0 0.00 0.00 0.01 20 1023.9
20171211092937 46 335 1.0 1.0 0.00 0.00 0.01 20 1023.9
20171211092809 46 335 1.0 1.0 0.00 0.00 0.01 20 1023.9
20171211092634 46 0 0.0 0.0 0.00 0.00 0.01 20 1023.8
20171211092407 46 0 0.0 0.0 0.00 0.00 0.01 20 1023.8
20171211091334 46 270 1.0 2.0 0.00 0.00 0.01 20 1023.8
20171211091204 46 270 1.0 2.0 0.00 0.00 0.01 20 1023.8
20171211090937 46 315 1.0 2.0 0.00 0.00 0.01 20 1023.9
20171211090803 46 315 1.0 2.0 0.00 0.00 0.01 20 1023.9
20171211090641 46 299 1.0 1.0 0.00 0.00 0.01 20 1023.9
20171211090559 46 299 1.0 1.0 0.00 0.00 0.01 20 1023.9
20171211090401 46 299 1.0 1.0 0.00 0.00 0.01 20 1023.9
20171211090103 46 225 1.0 1.0 0.00 0.00 0.01 20 1023.9
20171211090024 47 0 1.0 1.0 0.00 0.00 0.01 20 1023.9
20171211085959 46 225 1.0 1.0 0.00 0.00 0.01 20 1023.9
20171211085833 47 180 0.0 1.0 0.00 0.00 0.01 20 1023.8
20171211085627 47 243 0.0 1.0 0.00 0.00 0.01 20 1023.8
20171211085558 47 180 0.0 1.0 0.00 0.00 0.01 20 1023.8
20171211085359 47 6 0.0 1.0 0.00 0.00 0.01 20 1023.9
20171211085324 47 6 0.0 1.0 0.00 0.00 0.01 20 1023.9
20171211085228 47 342 0.0 1.0 0.00 0.00 0.01 20 1023.8
20171211085157 47 6 0.0 1.0 0.00 0.00 0.01 20 1023.9
20171211084922 47 0 1.0 1.0 0.00 0.00 0.01 20 1023.9
20171211084918 48 270 0.0 1.0 0.00 0.00 0.01 20 1023.8
20171211084756 47 0 1.0 1.0 0.00 0.00 0.01 20 1023.9
20171211084519 47 243 0.0 1.0 0.00 0.00 0.01 20 1023.8
20171211084355 47 243 0.0 1.0 0.00 0.00 0.01 20 1023.8
20171211084228 48 225 1.0 1.0 0.00 0.00 0.01 20 1023.9
20171211084130 47 342 0.0 1.0 0.00 0.00 0.01 20 1023.8
20171211083953 47 342 0.0 1.0 0.00 0.00 0.01 20 1023.8
20171211083929 48 10 0.0 1.0 0.00 0.00 0.01 20 1024.0
20171211083734 48 270 0.0 1.0 0.00 0.00 0.01 20 1023.8
20171211083551 48 270 0.0 1.0 0.00 0.00 0.01 20 1023.8
20171211083315 48 301 1.0 1.0 0.00 0.00 0.01 20 1023.8
20171211083150 48 301 1.0 1.0 0.00 0.00 0.01 20 1023.8
20171211083012 48 225 1.0 1.0 0.00 0.00 0.01 20 1023.9
20171211082749 48 225 1.0 1.0 0.00 0.00 0.01 20 1023.9
20171211082647 48 10 0.0 1.0 0.00 0.00 0.01 20 1024.0
20171211082612 48 10 0.0 1.0 0.00 0.00 0.01 20 1024.0
20171211082348 48 10 0.0 1.0 0.00 0.00 0.01 20 1024.0
20171211082142 48 225 0.0 1.0 0.00 0.00 0.01 20 1023.9
20171211081947 48 225 0.0 1.0 0.00 0.00 0.01 20 1023.9
20171211081715 48 225 0.0 2.0 0.00 0.00 0.01 20 1024.0
20171211081700 49 294 1.0 1.0 0.00 0.00 0.01 19 1024.0
20171211081545 48 225 0.0 2.0 0.00 0.00 0.01 20 1024.0
20171211081341 49 315 1.0 1.0 0.00 0.00 0.01 20 1024.0
20171211081143 49 315 1.0 1.0 0.00 0.00 0.01 20 1024.0
20171211081003 49 11 0.0 1.0 0.00 0.00 0.01 19 1024.0
20171211080742 49 11 0.0 1.0 0.00 0.00 0.01 19 1024.0
20171211080529 49 294 1.0 1.0 0.00 0.00 0.01 19 1024.0
20171211080342 49 294 1.0 1.0 0.00 0.00 0.01 19 1024.0
20171211075540 49 270 1.0 1.0 0.00 0.00 0.01 19 1024.1
20171211074736 49 270 1.0 1.0 0.00 0.00 0.01 19 1024.1
20171211074713 49 270 0.0 0.0 0.00 0.00 0.01 19 1024.1
20171211074523 49 270 1.0 1.0 0.00 0.00 0.01 19 1024.1
20171211074425 50 281 0.0 1.0 0.00 0.00 0.01 19 1024.2
20171211074335 49 270 1.0 1.0 0.00 0.00 0.01 19 1024.1
20171211074130 49 225 0.0 0.0 0.00 0.00 0.01 19 1024.2
20171211073934 49 225 0.0 0.0 0.00 0.00 0.01 19 1024.2
20171211073740 49 270 0.0 0.0 0.00 0.00 0.01 19 1024.1
20171211073630 50 333 0.0 1.0 0.00 0.00 0.01 19 1024.2
20171211073532 49 270 0.0 0.0 0.00 0.00 0.01 19 1024.1
20171211073321 50 281 0.0 1.0 0.00 0.00 0.01 19 1024.2
20171211073131 50 281 0.0 1.0 0.00 0.00 0.01 19 1024.2
20171211073030 50 225 0.0 1.0 0.00 0.00 0.01 19 1024.2
20171211072920 50 333 0.0 1.0 0.00 0.00 0.01 19 1024.2
20171211072730 50 333 0.0 1.0 0.00 0.00 0.01 19 1024.2
20171211072638 50 270 0.0 1.0 0.00 0.00 0.01 19 1024.1
20171211072328 50 270 0.0 1.0 0.00 0.00 0.01 19 1024.1
20171211072121 50 225 0.0 1.0 0.00 0.00 0.01 19 1024.2
20171211071929 51 315 0.0 1.0 0.00 0.00 0.01 19 1024.1
20171211071926 50 225 0.0 1.0 0.00 0.00 0.01 19 1024.2
20171211071530 51 0 0.0 1.0 0.00 0.00 0.01 18 1024.1
20171211071304 51 281 0.0 1.0 0.00 0.00 0.01 19 1024.1
20171211071125 51 281 0.0 1.0 0.00 0.00 0.01 19 1024.1
20171211070858 51 315 0.0 1.0 0.00 0.00 0.01 19 1024.1
20171211070724 51 315 0.0 1.0 0.00 0.00 0.01 19 1024.1
20171211070656 51 240 1.0 2.0 0.00 0.00 0.01 18 1024.1
20171211070531 51 0 0.0 1.0 0.00 0.00 0.01 18 1024.1
20171211070326 51 0 0.0 1.0 0.00 0.00 0.01 18 1024.1
20171211070128 51 315 0.0 2.0 0.00 0.00 0.01 18 1024.1
20171211065920 51 315 0.0 2.0 0.00 0.00 0.01 18 1024.1
20171211065744 51 240 1.0 2.0 0.00 0.00 0.01 18 1024.1
20171211065518 51 240 1.0 2.0 0.00 0.00 0.01 18 1024.1
20171211065305 52 270 1.0 2.0 0.00 0.00 0.01 18 1024.1
20171211065117 52 270 1.0 2.0 0.00 0.00 0.01 18 1024.1
20171211064918 52 315 1.0 2.0 0.00 0.00 0.01 18 1024.1
20171211064717 52 315 1.0 2.0 0.00 0.00 0.01 18 1024.1
20171211064530 52 270 0.0 2.0 0.00 0.00 0.01 18 1023.9
20171211064315 52 270 0.0 2.0 0.00 0.00 0.01 18 1023.9
20171211064124 52 270 1.0 2.0 0.00 0.00 0.01 18 1024.0
20171211063914 52 270 1.0 2.0 0.00 0.00 0.01 18 1024.0
20171211063717 52 270 1.0 1.0 0.00 0.00 0.01 17 1024.0
20171211063512 52 270 1.0 1.0 0.00 0.00 0.01 17 1024.0
20171211063221 52 315 2.0 2.0 0.00 0.00 0.01 17 1023.9
20171211063127 53 42 0.0 0.0 0.00 0.00 0.01 16 1023.7
20171211063111 52 315 2.0 2.0 0.00 0.00 0.01 17 1023.9
20171211062839 53 315 1.0 1.0 0.00 0.00 0.01 17 1023.9
20171211062728 53 45 0.0 1.0 0.00 0.00 0.01 16 1023.8
20171211062709 53 315 1.0 1.0 0.00 0.00 0.01 17 1023.9
20171211062530 53 261 0.0 1.0 0.00 0.00 0.01 17 1023.9
20171211062308 53 261 0.0 1.0 0.00 0.00 0.01 17 1023.9
20171211061907 53 0 0.0 1.0 0.00 0.00 0.01 17 1023.8
20171211061826 53 315 1.0 2.0 0.00 0.00 0.01 16 1023.7
20171211061647 53 355 1.0 1.0 0.00 0.00 0.01 17 1023.8
20171211061506 53 355 1.0 1.0 0.00 0.00 0.01 17 1023.8
20171211061431 53 289 0.0 1.0 0.00 0.00 0.01 16 1023.7
20171211061315 53 42 0.0 0.0 0.00 0.00 0.01 16 1023.7
20171211061104 53 42 0.0 0.0 0.00 0.00 0.01 16 1023.7
20171211060835 53 45 0.0 1.0 0.00 0.00 0.01 16 1023.8
20171211060703 53 45 0.0 1.0 0.00 0.00 0.01 16 1023.8
20171211060412 53 315 1.0 2.0 0.00 0.00 0.01 16 1023.7
20171211060301 53 315 1.0 2.0 0.00 0.00 0.01 16 1023.7
20171211060107 53 289 0.0 1.0 0.00 0.00 0.01 16 1023.7
20171211060034 53 289 0.0 1.0 0.00 0.00 0.01 16 1023.7
20171211055900 53 289 0.0 1.0 0.00 0.00 0.01 16 1023.7
20171211055812 54 0 0.0 0.0 0.00 0.00 0.01 16 1023.6
20171211055459 54 0 0.0 0.0 0.00 0.00 0.01 16 1023.6
20171211055242 54 270 0.0 2.0 0.00 0.00 0.01 16 1023.6
20171211055058 54 270 0.0 2.0 0.00 0.00 0.01 16 1023.6
20171211054843 54 321 0.0 1.0 0.00 0.00 0.01 16 1023.5
20171211054656 54 321 0.0 1.0 0.00 0.00 0.01 16 1023.5
20171211054255 54 238 1.0 1.0 0.00 0.00 0.01 16 1023.6
20171211054053 54 220 0.0 1.0 0.00 0.00 0.01 16 1023.5
20171211053854 54 220 0.0 1.0 0.00 0.00 0.01 16 1023.5
20171211053701 54 353 1.0 2.0 0.00 0.00 0.01 16 1023.5
20171211053452 54 353 1.0 2.0 0.00 0.00 0.01 16 1023.5
20171211053228 54 243 0.0 1.0 0.00 0.00 0.01 15 1023.4
20171211053052 54 243 0.0 1.0 0.00 0.00 0.01 15 1023.4
20171211052855 54 270 0.0 3.0 0.00 0.00 0.01 15 1023.5
20171211052651 54 270 0.0 3.0 0.00 0.00 0.01 15 1023.5
20171211052636 55 270 1.0 2.0 0.00 0.00 0.01 15 1023.4
20171211052510 55 225 3.0 3.0 0.00 0.00 0.01 15 1023.4
20171211052248 55 225 3.0 3.0 0.00 0.00 0.01 15 1023.4
20171211052046 55 245 1.0 1.0 0.00 0.00 0.01 15 1023.4
20171211051847 55 245 1.0 1.0 0.00 0.00 0.01 15 1023.4
20171211051730 55 315 2.0 2.0 0.00 0.00 0.01 15 1023.4
20171211051607 55 270 1.0 2.0 0.00 0.00 0.01 15 1023.4
20171211051446 55 270 1.0 2.0 0.00 0.00 0.01 15 1023.4
20171211051240 55 202 1.0 3.0 0.00 0.00 0.01 15 1023.4
20171211051044 55 202 1.0 3.0 0.00 0.00 0.01 15 1023.4
20171211050857 56 326 0.0 1.0 0.00 0.00 0.01 14 1023.3
20171211050820 55 315 2.0 2.0 0.00 0.00 0.01 15 1023.4
20171211050643 55 315 2.0 2.0 0.00 0.00 0.01 15 1023.4
20171211050425 56 285 1.0 2.0 0.00 0.00 0.01 15 1023.3
20171211050242 56 285 1.0 2.0 0.00 0.00 0.01 15 1023.3
20171211050022 56 326 0.0 1.0 0.00 0.00 0.01 14 1023.3
20171211045840 56 326 0.0 1.0 0.00 0.00 0.01 14 1023.3
20171211045820 57 0 0.0 2.0 0.00 0.00 0.01 14 1023.1
20171211045721 56 270 1.0 1.0 0.00 0.00 0.01 14 1023.3
20171211045439 56 270 1.0 1.0 0.00 0.00 0.01 14 1023.3
20171211045258 56 225 1.0 2.0 0.00 0.00 0.01 14 1023.2
20171211045038 56 225 1.0 2.0 0.00 0.00 0.01 14 1023.2
20171211044919 57 0 3.0 3.0 0.00 0.00 0.01 14 1023.2
20171211044845 57 0 0.0 2.0 0.00 0.00 0.01 14 1023.1
20171211044637 57 0 0.0 2.0 0.00 0.00 0.01 14 1023.1
20171211044416 57 225 1.0 2.0 0.00 0.00 0.01 14 1023.2
20171211044235 57 225 1.0 2.0 0.00 0.00 0.01 14 1023.2
20171211044029 57 0 3.0 3.0 0.00 0.00 0.01 14 1023.2
20171211043955 57 0 3.0 3.0 0.00 0.00 0.01 14 1023.2
20171211043834 57 0 3.0 3.0 0.00 0.00 0.01 14 1023.2
20171211043432 58 265 2.0 2.0 0.00 0.00 0.01 14 1023.1
20171211043222 58 315 0.0 2.0 0.00 0.00 0.01 14 1023.1
20171211043031 58 315 0.0 2.0 0.00 0.00 0.01 14 1023.1
20171211042953 58 254 2.0 2.0 0.00 0.00 0.01 13 1022.9
20171211042630 58 270 1.0 2.0 0.00 0.00 0.01 13 1023.1
20171211042438 58 342 1.0 2.0 0.00 0.00 0.01 13 1023.0
20171211042421 58 258 1.0 3.0 0.00 0.00 0.01 13 1023.0
20171211042229 58 258 1.0 3.0 0.00 0.00 0.01 13 1023.0